Other Public Products
Issued by NWS Grand Forks, ND

Home | Current Version | Previous Version | Graphics & Text | Print | Product List | Glossary On
Versions: 1 2 3 4 5 6 7 8 9 10 11 12 13 14 15 16 17 18 19 20 21 22 23 24 25 26 27 28 29 30 31 32 33 34 35 36 37 38 39 40 41 42 43 44 45 46 47 48 49 50
000
FPUS83 KFGF 230010
OPUFGF
PRAIRIE TO PINES WEATHER ROUNDUP
NATIONAL WEATHER SERVICE EASTERN NORTH DAKOTA/GRAND FORKS ND
700 PM CDT THU JUN 22 2017

 **SATELLITE DATA USED TO AUGMENT SKY COVER AT AUTOMATED STATIONS**
 *****  WEATHER ACROSS EASTERN NORTH DAKOTA  *****

CITY           SKY/WX    TMP DP  RH WIND       PRES   REMARKS
GRAND FORKS    PTSUNNY   74  40  29 W17G30    29.66F
6HR MIN TEMP:  73; 6HR MAX TEMP:  78;

GRAND FORKS AF FAIR      72  38  28 NW21G29   29.67F
GRAND CITY NWS NOT AVBL
BUXTON         NOT AVBL
DEVILS LAKE    FAIR      67  41  38 W31G38    29.71R
6HR MIN TEMP:  67; 6HR MAX TEMP:  72;

FARGO          FAIR      76  36  23 W22G31    29.72R
6HR MIN TEMP:  76; 6HR MAX TEMP:  80;

WAHPETON ARPT  FAIR      73  36  25 W16G24    29.75R
$$

 *****  WEATHER ACROSS CENTRAL AND WESTERN NORTH DAKOTA  *****

CITY           SKY/WX    TMP DP  RH WIND       PRES   REMARKS
JAMESTOWN      FAIR      73  34  23 W22G32    29.75F
6HR MIN TEMP:  71; 6HR MAX TEMP:  76;

BISMARCK       FAIR      74  32  21 W22G36    29.81S
6HR MIN TEMP:  74; 6HR MAX TEMP:  79;

MINOT          FAIR      66  41  40 W31G43    29.76R
6HR MIN TEMP:  66; 6HR MAX TEMP:  74;

MINOT AFB      FAIR      62  45  52 W28G33    29.75R
6HR MIN TEMP:  62; 6HR MAX TEMP:  71;

GARRISON         N/A     67  37  33 NW29G38   29.78S
6HR MIN TEMP:  67; 6HR MAX TEMP:  72;

WILLISTON      CLOUDY    63  47  55 W25G36    29.88R
6HR MIN TEMP:  62; 6HR MAX TEMP:  75;

DICKINSON      FAIR      69  24  18 NW28G44   29.86R
6HR MIN TEMP:  67; 6HR MAX TEMP:  74;

HETTINGER      FAIR      72  29  20 NW23G32   29.91S
6HR MIN TEMP:  69; 6HR MAX TEMP:  77;

$$

 *****  OTHER OBSERVATIONS NORTHEAST NORTH DAKOTA  *****

CITY           SKY/WX    TMP DP  RH WIND       PRES   REMARKS
WALHALLA       NOT AVBL
LANGDON        FAIR      64  41  42 W33G45    29.66F
CAVALIER       FAIR      66  45  45 W16G31    29.64S
GRAFTON        FAIR      68  46  45 NW20G25   29.67R
CANDO          NOT AVBL
FORT TOTTEN      N/A     68  44  41 NW13      29.95S
ROLLA            N/A     61  43  51 NW29G37   29.68S
RUGBY          NOT AVBL
 ***** THE ABOVE OBSERVATIONS ARE NON NWS ARE NOT QUALITY
        CONTROLLED AND MAY MIS-REPORT RAIN FOR SNOW...
$$

 *****  OTHER OBSERVATIONS SOUTHEAST NORTH DAKOTA *****

CITY           SKY/WX    TMP DP  RH WIND       PRES   REMARKS
COOPERSTOWN    FAIR      72  36  26 W20G35    29.73S
VALLEY CITY    FAIR      72  36  26 W20G28    29.76F
OAKES          NOT AVBL
GWINNER        CLEAR     75  37  25 NW17G24   29.77S
SHEYENNE NWR     N/A     76  36  23 NW14      29.95S
BUFFALO        NOT AVBL
WYNDMERE       NOT AVBL
 ***** THE ABOVE OBSERVATIONS ARE NON NWS ARE NOT QUALITY
       CONTROLLED AND MAY MIS-REPORT RAIN FOR SNOW...
$$

  *****  WEATHER ACROSS NORTHERN MINNESOTA  *****

CITY           SKY/WX    TMP DP  RH WIND       PRES   REMARKS
FLAG ISLAND    FAIR      68  43  40 W16G28    29.57R HAZE
WARROAD        FAIR      68  46  45 W17G25    29.61R
ROSEAU           N/A     70  48  46 NW12G22   29.61S
HALLOCK        FAIR      66  43  42 NW18G29   29.63R
THF RVR FALLS  FAIR      69  40  34 W15       29.68S
6HR MIN TEMP:  69; 6HR MAX TEMP:  74;

HALSTAD        NOT AVBL
FOSSTON        FAIR      70  41  35 W15G23    29.71S
BAUDETTE       FAIR      69  40  34 W14G25    29.60F
6HR MIN TEMP:  66; 6HR MAX TEMP:  75; 6HR PCP:  0.02;

WASKISH        FAIR      70  46  43 W18G24    29.65S
CROOKSTON      FAIR      72  39  30 W16       29.68F
$$
  *****  WEATHER ACROSS CENTRAL AND WEST MINNESOTA  *****

CITY           SKY/WX    TMP DP  RH WIND       PRES   REMARKS
BEMIDJI        FAIR      72  38  29 W17G28    29.69S
PARK RAPIDS    FAIR      75  40  28 NW14G24   29.71R
6HR MIN TEMP:  73; 6HR MAX TEMP:  79; 6HR PCP: TRACE;

WADENA         FAIR      72  52  49 W8        29.72S
DETROIT LAKES  FAIR      72  37  28 W13G26    29.74S
MOORHEAD       FAIR      75  36  23 W18G31    29.73S
FERGUS FALLS   FAIR      73  45  35 NW16G23   29.71R
ELBOW LAKE     CLOUDY    74  51  44 W13       29.75R
6HR MIN TEMP:  71; 6HR MAX TEMP:  76;

MORRIS MN      FAIR      72  57  60 S10       29.74S
STAPLES        FAIR      73  45  35 SW12      29.72S
WHEATON        FAIR      75  45  33 NW12      29.76R
$$
  *****  WEATHER ELSEWHERE ACROSS MINNESOTA  *****

CITY           SKY/WX    TMP DP  RH WIND       PRES   REMARKS
DULUTH         FAIR      73  51  46 W16       29.67S
6HR MIN TEMP:  71; 6HR MAX TEMP:  77;

INTRNTL FALLS  FAIR      72  41  32 W18G29    29.60F
6HR MIN TEMP:  68; 6HR MAX TEMP:  77; 6HR PCP: TRACE;

ELY            PTSUNNY   63  52  67 W3        29.65R
CLOQUET        FAIR      73  43  33 W10       29.68S
BRAINERD       FAIR      75  48  38 W13       29.71S
6HR MIN TEMP:  73; 6HR MAX TEMP:  77;

HIBBING        PTSUNNY   67  49  52 W7        29.66F
6HR MIN TEMP:  63; 6HR MAX TEMP:  74; 6HR PCP: TRACE;

ALEXANDRIA     PTSUNNY   71  56  58 SW13      29.76S
6HR MIN TEMP:  69; 6HR MAX TEMP:  75;

SAINT CLOUD    FAIR      73  50  44 W8        29.74F
6HR MIN TEMP:  61; 6HR MAX TEMP:  73; 6HR PCP: TRACE;

MINNEAPOLIS    PTSUNNY   72  63  73 NW7       29.73F
6HR MIN TEMP:  66; 6HR MAX TEMP:  72; 6HR PCP:  0.09;

$$

  *****  WEATHER ACROSS SOUTH DAKOTA  *****

CITY           SKY/WX    TMP DP  RH WIND       PRES   REMARKS
SIOUX FALLS    PTSUNNY   72  60  66 N14       29.78R
6HR MIN TEMP:  70; 6HR MAX TEMP:  76;

BROOKINGS      NOT AVBL
WATERTOWN      FAIR      72  56  57 SW9       29.79F
6HR MIN TEMP:  61; 6HR MAX TEMP:  73;

HURON          FAIR      76  52  43 CALM      29.80F
6HR MIN TEMP:  67; 6HR MAX TEMP:  78;

SISSETON         N/A     79  40  24 NW22      29.74S
ABERDEEN       FAIR      79  40  24 NW17G28   29.78S
6HR MIN TEMP:  76; 6HR MAX TEMP:  82;

MITCHELL       PTSUNNY   74  47  38 N13       29.82R
PIERRE         FAIR      78  45  30 NW9       29.82F
6HR MIN TEMP:  73; 6HR MAX TEMP:  78;

MOBRIDGE       FAIR      77  36  22 NW13      29.80S
RAPID CITY     FAIR      77  34  21 N21       29.92R
6HR MIN TEMP:  68; 6HR MAX TEMP:  79;

$$

  *****  SOME WEATHER IN NEARBY STATES *****

CITY           SKY/WX    TMP DP  RH WIND       PRES   REMARKS
GLASGOW MT     LGT RAIN  55  48  77 NW23G30   30.04R
6HR MIN TEMP:  53; 6HR MAX TEMP:  70; 6HR PCP: TRACE;

GREAT FALLS MT FAIR      60  34  37 N15G24    30.23R
6HR MIN TEMP:  60; 6HR MAX TEMP:  68;

CHEYENNE WY    FAIR      74  37  26 E9        30.03S
6HR MIN TEMP:  71; 6HR MAX TEMP:  77;

SCOTTSBLUFF NE PTSUNNY   78  51  38 NE13      29.92R
6HR MIN TEMP:  77; 6HR MAX TEMP:  81;

OMAHA NE       PTSUNNY   89  68  49 NW8       29.61S HX  93
6HR MIN TEMP:  85; 6HR MAX TEMP:  92; 6HR PCP: TRACE;

DES MOINES IA  FAIR      87  69  54 SW10      29.65R HX  91
6HR MIN TEMP:  78; 6HR MAX TEMP:  89; 6HR PCP:  0.01;

DAVENPORT IA   FAIR      81  71  71 S10G23    29.68R
6HR MIN TEMP:  81; 6HR MAX TEMP:  86;

CHICAGO IL     FAIR      85  68  56 SW16G28   29.69F
6HR MIN TEMP:  85; 6HR MAX TEMP:  88; 6HR PCP: TRACE;

EAU CLAIRE WI  NOT AVBL
LA CROSSE WI   LGT RAIN  70  68  93 NE5       29.68F
6HR MIN TEMP:  69; 6HR MAX TEMP:  72; 6HR PCP:  0.72;

$$

  *****  SOME NATIONAL WEATHER *****

CITY           SKY/WX    TMP DP  RH WIND       PRES   REMARKS
LA GUARDIA NY  MOCLDY    78  67  68 S9        29.90S
6HR MIN TEMP:  78; 6HR MAX TEMP:  84;



USA.gov is the U.S. government's official web portal to all federal, state and local government web resources and services.